Theta_e
347 345 344 343 341 341 344 346 348 350 350 350 349 349 350 349 349 349 348 348 347 346 345 343 343 343 343 343 342 342 341 342 343 344 345 341 332 328 330 330 331 332 333 333 336 339 341 341 342 344 345 347 348 348 347 348 349 350 350 350 350 350 350 350 351 351 351 351 351 351 351 351 352 351 351 352 351 349 349 349 348 347 346 344 344
344 343 343 341 341 344 346 348 349 350 350 350 350 350 350 349 349 349 348 348 347 346 345 343 342 343 342 342 341 340 341 342 342 343 344 340 331 328 329 329 330 331 331 331 333 335 339 342 345 347 347 348 350 349 348 349 349 350 350 350 350 351 351 351 351 351 351 351 351 351 351 350 350 350 349 348 346 344 344 344 341 337 334 332 333
343 342 342 342 343 346 347 348 349 350 350 350 350 350 350 350 349 348 348 348 346 346 346 345 343 342 342 341 340 340 341 341 342 343 343 339 333 332 332 331 331 331 331 332 333 335 338 340 343 345 346 347 348 347 348 347 347 348 348 348 348 349 349 349 350 350 351 350 350 350 349 347 345 344 343 341 339 338 336 332 330 330 328 326 325
342 342 342 343 345 347 348 349 350 350 350 351 351 351 350 350 350 350 349 348 347 347 347 346 344 342 342 342 341 341 341 341 341 342 344 343 339 339 340 338 337 335 335 336 337 338 340 341 343 344 344 344 345 345 345 345 345 345 345 345 345 346 345 345 346 347 347 346 345 345 343 340 339 339 339 337 335 332 331 332 335 339 339 335 333
342 342 343 345 347 349 349 350 350 350 351 351 351 351 350 350 350 350 348 347 347 347 348 346 344 343 342 342 342 341 341 341 341 341 343 345 345 345 345 345 344 342 341 340 340 341 342 343 344 344 344 344 344 344 344 344 344 343 343 343 343 342 342 342 342 342 343 343 342 341 338 336 337 337 337 337 334 332 335 342 345 346 346 343 342
342 343 345 347 349 349 350 350 350 351 351 351 351 351 351 350 350 349 347 346 347 348 348 345 343 343 342 341 342 341 341 341 341 341 341 344 345 346 347 347 348 347 346 345 345 344 344 345 345 345 346 345 344 343 343 342 341 341 341 341 341 341 341 342 343 344 345 346 346 345 342 339 338 338 338 338 336 335 338 344 345 345 345 344 345
343 344 347 348 348 349 350 350 351 351 351 351 351 351 351 351 350 348 346 346 347 349 348 345 342 342 341 341 341 341 342 341 341 341 341 342 343 345 346 347 348 348 349 349 349 348 348 347 347 347 347 347 346 344 342 342 341 341 341 341 341 343 344 345 346 347 348 349 349 350 348 346 344 342 342 342 341 339 339 340 342 344 345 344 345
343 345 347 348 349 350 350 350 351 351 351 351 351 351 351 351 350 349 347 346 347 348 347 344 341 341 341 341 341 341 341 341 341 341 341 342 342 343 344 345 347 348 348 348 348 349 349 349 349 349 349 350 348 346 344 343 342 343 343 344 344 345 347 347 348 349 350 350 351 351 351 351 350 349 348 348 348 346 343 340 341 344 344 344 344
345 346 347 349 349 350 350 351 352 352 351 352 352 352 352 351 350 349 348 348 349 348 347 344 341 341 341 341 341 342 342 342 342 342 341 341 341 342 344 345 345 346 347 347 347 348 348 349 350 350 350 351 351 350 348 345 344 345 345 345 346 347 347 348 349 349 350 350 351 351 352 352 352 352 352 352 351 351 349 346 344 345 346 345 343
346 347 347 349 349 350 351 352 353 352 351 352 352 352 352 351 349 348 349 349 350 348 346 343 340 340 341 341 342 342 342 342 342 343 342 343 342 342 342 343 344 345 345 346 346 346 348 348 349 350 350 351 351 352 351 349 347 346 345 345 346 347 347 348 348 349 350 350 351 351 352 352 352 353 353 353 353 352 352 351 349 348 348 347 345
346 347 347 348 349 351 351 353 353 352 351 353 353 353 353 351 349 348 348 349 349 348 346 343 341 341 340 340 341 340 341 342 342 343 343 343 343 342 342 342 343 344 344 345 345 345 347 348 348 349 350 350 351 351 351 351 350 348 346 345 346 347 347 348 348 349 350 350 350 351 351 351 351 351 351 351 352 352 352 352 352 352 351 349 348
347 347 348 349 350 351 352 354 354 351 352 353 353 353 352 350 350 349 348 348 349 348 344 342 341 341 340 339 339 340 341 342 341 342 342 342 343 343 343 343 343 343 343 344 345 345 345 346 347 348 348 349 349 350 350 350 350 348 347 346 346 347 347 348 349 350 350 350 351 351 351 351 351 351 350 351 351 350 351 351 351 352 352 352 350
348 348 349 350 351 351 352 353 353 351 352 353 353 353 352 351 351 350 349 349 348 348 344 340 341 341 340 339 338 339 341 342 341 341 341 340 342 343 343 344 344 343 343 343 344 344 344 345 346 347 348 348 348 349 349 349 348 346 346 345 345 346 347 348 348 349 349 350 350 351 351 351 351 351 351 351 350 350 350 349 350 350 350 351 351
349 349 349 350 350 351 352 353 354 353 352 353 353 353 353 353 352 350 350 350 348 349 347 342 341 340 339 340 341 341 340 340 341 341 340 341 341 342 342 343 343 342 342 343 343 344 344 345 345 346 346 347 347 347 348 348 347 347 346 345 345 345 346 346 347 347 348 348 348 349 350 351 351 351 351 351 351 350 350 349 349 349 350 350 350
349 349 350 350 350 351 352 354 354 355 354 353 354 354 355 354 353 351 351 350 348 348 348 345 343 340 340 346 347 349 350 343 340 341 342 342 342 342 342 341 342 342 342 343 343 343 343 344 344 345 345 345 346 347 347 346 346 346 346 346 346 346 346 346 347 348 348 348 348 349 350 350 351 351 351 351 351 350 350 349 349 350 350 350 350
351 351 351 351 350 351 352 354 354 355 354 354 354 356 355 355 355 353 351 350 349 348 348 347 345 341 344 349 347 353 360 349 342 342 341 342 341 340 341 341 342 342 342 342 342 342 342 343 343 343 343 344 345 345 345 345 345 345 346 346 346 346 347 347 348 348 349 349 350 350 351 351 351 351 350 351 351 350 350 349 349 350 350 350 351
351 353 354 352 351 352 353 354 355 355 353 354 355 355 355 354 355 354 352 352 350 349 349 348 347 344 344 349 349 356 359 347 343 344 340 340 340 340 340 341 342 341 342 342 342 342 342 342 342 341 342 342 343 345 345 345 345 345 346 346 347 347 347 348 348 349 350 350 350 351 351 350 350 351 351 350 351 351 350 350 349 349 349 349 350
351 352 354 353 353 354 353 355 356 355 354 354 355 355 355 354 354 355 354 353 351 349 349 347 348 347 345 347 348 349 349 345 347 350 345 341 341 341 341 340 340 341 341 342 342 342 342 342 342 342 341 341 342 343 344 345 344 345 346 347 347 347 348 348 349 350 350 350 349 349 348 348 349 349 351 351 352 352 351 351 351 350 349 347 346
348 351 354 354 354 354 354 356 356 355 354 355 355 355 355 354 355 356 355 354 352 350 350 348 348 348 347 347 346 346 346 345 350 352 352 350 342 340 342 342 342 342 342 343 343 343 343 343 343 343 341 341 341 342 344 345 344 346 347 347 348 348 349 349 350 349 349 348 346 346 345 344 345 346 348 349 350 351 351 351 351 351 350 347 343
345 349 352 354 354 354 354 355 355 354 354 355 355 354 354 355 355 355 356 354 352 352 352 350 349 349 348 347 346 347 345 346 348 346 351 359 351 344 343 343 345 345 346 346 347 347 346 345 344 343 342 341 341 343 344 344 346 347 348 349 349 349 349 349 349 347 346 346 346 346 345 344 343 344 346 346 347 348 348 349 349 350 350 349 345
345 348 351 354 356 355 355 355 355 354 354 355 355 353 354 355 355 355 356 355 353 353 353 352 350 349 348 347 346 347 345 346 347 344 348 357 355 350 346 343 345 346 347 348 348 348 347 346 345 344 343 342 342 343 344 346 348 349 349 349 349 348 348 348 347 346 346 346 347 347 347 345 345 346 347 347 346 346 346 346 347 348 348 349 346
345 348 352 355 356 356 356 355 355 355 355 355 355 353 354 355 355 356 355 354 353 352 352 353 351 350 349 347 347 347 347 347 346 345 345 346 348 348 345 345 347 347 347 348 348 348 348 346 346 346 344 343 343 344 347 348 348 348 348 348 348 348 348 347 345 345 346 346 347 347 347 347 347 348 348 347 348 348 348 348 347 348 347 347 346
346 349 354 355 356 356 356 356 356 355 355 355 354 353 354 354 355 355 354 353 353 353 352 353 352 351 350 349 348 347 348 347 346 346 345 343 347 349 345 346 347 346 348 348 347 348 349 348 348 349 349 348 347 348 349 348 347 347 347 346 347 347 346 345 344 344 346 346 346 346 347 349 348 348 349 350 351 351 351 351 350 350 348 346 346
347 350 354 355 355 355 355 356 356 355 355 355 354 353 354 354 354 354 353 353 353 353 352 353 352 351 351 351 350 348 348 348 346 347 347 345 348 348 346 348 349 347 348 348 348 349 350 351 351 350 351 351 351 351 349 348 348 347 346 345 346 347 345 344 344 344 345 346 346 346 347 349 349 350 351 353 353 353 353 353 352 352 350 349 348
349 351 353 354 355 355 354 354 353 354 355 355 355 354 354 354 353 353 353 353 354 353 352 353 353 352 352 352 351 349 349 349 348 349 349 348 348 347 347 348 349 349 349 349 349 350 351 352 351 349 348 348 348 349 347 347 347 346 346 346 347 346 344 344 345 344 344 346 346 345 346 348 349 350 352 353 354 353 354 354 353 353 353 353 351
348 350 351 353 355 355 354 353 352 352 354 355 354 353 354 354 353 352 353 353 354 354 353 354 354 354 353 354 353 352 351 351 351 351 349 349 349 348 348 349 348 347 348 350 350 351 352 351 351 348 346 346 345 346 347 346 345 345 345 345 346 345 344 344 344 343 345 346 346 345 345 346 346 348 351 352 352 351 352 351 351 353 353 354 355
349 350 352 353 354 354 355 354 352 351 353 354 354 353 353 353 353 353 352 352 353 354 354 353 354 355 354 354 355 354 354 354 354 353 352 351 350 350 350 352 355 352 349 350 351 351 353 352 351 348 346 346 345 346 347 344 343 344 344 344 344 343 344 345 345 345 346 347 346 345 345 346 346 347 349 351 352 351 352 351 350 350 351 354 355
351 351 353 354 354 354 355 355 353 351 351 353 354 353 353 353 354 354 353 353 353 354 355 354 354 354 354 354 355 355 356 355 355 355 355 354 353 353 352 352 357 359 359 359 355 351 352 353 352 349 346 344 344 345 344 341 343 345 344 343 344 345 346 347 347 347 347 346 346 346 347 347 348 349 351 352 353 354 355 354 352 352 353 355 356
352 351 352 354 354 354 355 354 353 352 351 353 354 353 353 353 353 354 354 354 354 354 355 355 354 354 353 353 354 355 356 355 356 355 355 355 354 354 353 351 353 359 365 367 361 353 352 354 353 350 347 343 343 342 339 340 344 346 347 347 348 349 349 349 348 347 347 347 348 348 348 349 350 352 353 354 356 356 357 357 356 356 356 356 357
352 352 353 353 353 354 354 354 354 353 353 355 355 354 354 354 354 354 354 354 354 354 354 354 353 353 352 352 354 356 356 356 357 357 355 355 354 353 354 352 352 355 357 362 363 356 351 353 352 350 348 343 342 342 339 341 346 347 349 350 350 350 349 347 347 346 347 348 349 350 349 350 352 354 355 356 356 356 357 357 356 357 357 356 356
352 352 353 353 353 353 354 355 354 353 354 355 355 355 355 355 355 355 354 354 354 353 352 352 352 353 353 352 354 356 357 356 357 357 355 354 354 353 354 352 352 352 351 355 360 357 352 352 351 348 347 344 343 343 340 340 345 347 349 350 350 349 347 345 346 346 348 349 350 350 350 351 353 354 356 356 354 354 355 356 355 355 355 354 354
353 353 353 353 353 353 354 355 354 354 354 354 355 355 356 355 355 355 354 354 354 353 352 352 354 355 355 354 355 356 357 357 356 356 354 353 354 354 355 354 352 352 351 353 356 356 352 352 350 348 346 344 343 343 340 340 343 346 348 350 349 348 346 345 347 348 349 350 351 351 351 352 354 355 356 356 354 353 353 354 355 355 355 354 353
353 353 352 353 354 353 354 354 354 354 355 355 355 354 355 355 356 355 353 353 355 354 353 353 355 357 356 356 355 355 356 356 356 355 354 354 355 355 355 354 353 352 351 352 354 354 353 351 350 347 345 344 344 344 341 340 341 343 346 348 349 348 346 346 348 349 350 351 351 351 351 353 354 356 356 355 354 353 352 352 354 353 354 354 354
353 353 353 354 354 353 353 354 354 354 355 355 355 354 354 355 356 355 353 352 353 353 354 354 355 356 356 356 355 354 355 356 355 355 355 355 355 354 354 353 352 351 351 351 353 353 352 350 348 347 345 345 346 344 341 341 342 343 344 346 347 347 348 349 350 350 351 352 352 351 352 354 355 355 355 355 353 353 352 352 352 351 352 352 353
354 354 353 354 355 354 354 354 355 356 356 355 355 354 355 355 357 356 354 354 354 354 354 354 354 355 356 357 355 355 355 356 356 355 355 355 354 354 353 353 352 350 349 350 351 352 352 350 348 346 346 347 346 344 342 343 344 344 345 347 348 349 350 351 351 351 352 353 352 351 352 354 355 355 354 354 353 352 353 352 352 352 351 351 351
355 353 352 353 355 356 356 356 356 356 356 356 356 356 356 356 357 357 356 355 356 356 356 355 355 354 356 358 357 356 357 356 356 355 354 353 353 352 353 352 352 351 350 349 349 349 350 351 349 346 347 347 345 343 344 345 346 347 348 350 350 351 352 352 351 352 353 353 352 351 353 354 354 354 353 352 352 352 353 353 352 352 351 352 351
355 354 353 354 355 356 356 356 356 356 356 356 356 357 357 357 357 357 357 356 356 357 357 357 356 356 356 358 357 357 357 356 355 354 352 351 351 351 351 350 350 350 349 349 349 347 348 349 348 347 347 347 344 345 349 349 349 349 350 350 350 351 352 352 352 353 353 353 351 351 353 353 353 352 351 351 352 353 354 353 353 352 352 352 353
356 356 355 355 355 356 356 355 355 355 356 356 357 357 357 356 356 357 357 356 356 356 356 357 357 357 357 357 357 357 357 356 355 354 352 352 352 351 350 349 349 349 349 349 349 348 347 347 347 348 348 346 345 348 352 351 351 351 351 351 350 351 353 353 352 353 353 353 352 352 353 353 351 351 350 352 353 353 353 353 353 353 353 353 354
357 356 355 356 356 355 355 355 355 355 355 356 356 356 356 356 355 356 356 357 356 356 356 356 357 357 357 357 358 357 357 357 356 354 353 352 351 350 349 348 348 349 349 348 348 348 348 348 349 349 346 345 347 351 353 352 351 352 352 353 353 353 353 354 353 352 353 353 351 351 352 352 350 349 351 353 352 350 351 354 353 351 352 353 354
357 356 355 355 355 355 355 355 355 355 355 355 355 355 356 356 355 356 356 356 356 356 356 356 357 357 357 357 357 357 357 356 355 353 351 350 350 349 348 347 347 348 349 349 349 349 348 349 349 348 345 346 350 354 354 352 352 353 354 354 355 354 354 353 352 352 353 352 351 352 352 350 348 349 353 353 347 342 347 353 353 348 347 351 353
356 355 354 354 354 355 355 355 355 355 355 355 355 355 355 355 355 356 355 355 355 355 356 356 356 357 357 357 356 356 356 356 355 352 350 349 349 348 347 347 347 347 348 350 350 349 349 349 348 347 346 347 352 355 354 353 353 354 354 354 355 355 353 353 352 351 352 351 350 351 350 346 346 349 353 349 337 333 342 351 352 345 340 343 350
356 356 354 354 354 353 354 354 354 355 355 355 355 354 355 355 355 355 355 355 355 355 356 357 356 357 357 357 356 355 354 355 354 351 350 349 348 348 347 345 344 345 348 350 351 350 348 348 348 346 346 349 353 355 354 353 354 354 354 354 354 354 353 352 352 351 351 351 351 352 348 341 341 347 351 346 331 323 332 339 341 338 331 333 344
356 356 355 354 354 353 354 354 354 354 354 354 354 354 355 355 354 355 355 355 355 355 356 357 357 357 357 357 357 355 353 353 352 350 350 349 348 348 346 346 345 345 347 349 351 350 348 348 347 346 347 350 353 355 354 354 354 353 353 353 353 353 352 351 352 351 350 350 351 351 346 338 335 342 348 347 334 319 319 322 324 326 326 332 345
355 355 354 354 354 353 353 354 354 354 354 354 354 354 354 354 354 355 355 355 356 356 357 357 357 357 357 358 358 356 352 351 350 350 349 349 349 348 347 347 347 346 347 349 350 351 351 350 348 347 348 351 354 355 354 353 353 352 352 353 352 352 351 351 352 350 349 350 351 351 348 337 330 335 345 349 339 322 318 320 322 326 332 340 350
354 354 353 353 353 353 353 354 354 354 354 354 354 354 354 354 354 355 355 355 356 356 357 357 357 358 358 358 358 357 353 350 349 349 349 348 348 348 347 347 347 347 348 349 350 352 353 353 351 350 352 354 355 354 353 352 352 351 352 352 352 352 351 351 351 349 349 348 346 348 348 338 328 331 342 348 340 324 321 325 328 334 341 345 348
353 353 353 352 352 351 352 353 353 354 354 354 354 353 353 354 354 355 355 355 355 355 356 357 357 358 358 358 358 357 355 351 350 348 348 348 347 347 348 348 348 348 349 350 351 353 354 355 355 354 355 355 354 352 351 350 351 352 353 352 351 350 348 347 346 346 348 346 342 343 343 337 331 331 340 347 340 325 323 327 331 339 344 342 339
353 352 351 351 351 350 350 352 353 353 353 353 354 353 353 354 354 355 355 355 355 356 356 356 356 356 355 355 355 355 353 351 349 348 348 348 348 348 348 348 348 350 351 352 353 353 354 355 355 354 353 352 351 350 350 351 352 353 350 347 345 344 342 341 342 344 347 345 341 339 338 336 336 337 341 346 340 325 324 329 332 337 339 335 331
352 351 351 350 350 349 349 351 352 352 353 353 353 353 353 353 354 355 355 355 355 355 355 355 355 353 351 351 351 351 351 349 349 348 349 349 348 348 348 348 349 350 352 352 353 353 353 353 352 351 351 350 350 350 351 351 350 346 343 340 340 339 340 342 343 344 345 342 337 335 336 337 339 340 342 347 340 325 323 331 334 333 330 327 328
351 351 350 350 350 349 350 350 351 351 351 352 351 352 352 352 352 353 353 353 353 353 353 353 351 350 349 350 350 350 350 349 349 350 350 349 350 349 349 350 350 351 352 352 352 351 351 350 350 349 349 348 347 346 344 343 341 338 338 336 335 334 337 340 341 340 342 339 333 332 336 338 338 337 339 345 343 329 322 329 334 333 329 325 326
352 352 351 351 350 350 350 350 350 350 349 349 348 348 349 349 349 349 349 349 350 349 350 350 349 350 351 351 351 351 351 351 351 351 350 350 350 351 351 351 350 350 351 351 349 348 347 346 344 343 342 340 339 337 336 334 333 334 333 332 329 329 329 332 332 333 336 335 327 328 336 337 334 333 334 340 345 335 323 324 330 334 333 327 324
350 352 353 352 351 351 350 348 348 346 345 345 345 346 346 347 347 348 347 348 350 351 351 350 350 352 353 353 353 352 352 352 351 351 351 350 350 350 350 349 349 350 350 348 347 345 344 341 337 336 334 333 332 331 330 329 328 328 328 327 327 327 326 326 328 330 334 331 323 325 334 334 329 328 328 332 342 338 325 321 324 328 330 327 322
Wind_Speed
9 9 8 9 9 9 9 8 7 6 6 6 5 5 5 5 5 6 7 8 8 8 9 8 8 9 9 9 10 10 9 8 7 7 8 8 7 6 5 4 3 3 3 3 3 3 3 3 3 3 4 5 6 6 6 7 7 8 8 9 10 10 10 11 11 11 11 10 10 10 10 10 12 13 13 14 14 13 11 11 11 10 11 11 10
9 9 9 10 10 9 7 6 6 6 6 6 6 6 6 6 7 8 9 9 9 9 10 9 8 9 9 9 9 8 7 7 7 6 7 7 7 5 4 4 4 4 4 4 4 4 3 4 5 5 6 6 7 7 8 8 9 9 10 10 10 11 11 11 11 10 10 9 9 9 9 10 10 11 11 12 12 11 9 9 9 10 10 9 9
9 10 10 10 8 7 6 6 6 5 5 6 6 6 7 7 8 8 9 10 10 10 11 11 10 9 9 9 8 7 6 6 6 6 6 6 6 6 5 5 4 4 4 4 4 4 5 5 5 6 6 6 7 7 8 9 10 10 11 11 11 10 10 10 9 8 8 8 8 8 8 8 8 8 8 8 7 7 7 7 7 6 7 7 7
10 10 10 8 7 6 6 6 5 5 5 5 6 7 7 7 8 8 9 10 11 11 12 11 10 9 9 9 8 7 6 6 5 5 5 5 6 6 6 5 5 5 5 4 4 5 5 5 6 6 6 7 7 8 8 9 10 10 10 10 10 9 9 8 8 7 7 7 8 8 8 7 6 6 6 6 6 6 6 6 5 5 5 5 6
10 9 8 7 6 6 6 5 5 4 4 5 6 6 7 7 8 8 9 10 11 12 12 10 10 10 9 8 8 7 7 7 6 5 5 5 5 5 6 6 6 5 5 5 5 5 5 5 6 6 7 7 8 8 8 9 8 9 9 8 8 7 7 7 7 7 7 8 8 9 8 8 7 7 7 7 7 6 5 5 5 5 6 6 7
9 8 8 7 6 5 5 5 4 4 5 5 6 6 7 7 8 9 9 11 11 12 11 10 9 9 9 8 8 7 7 8 7 7 6 5 5 5 5 6 6 6 6 5 5 6 6 6 6 7 7 8 8 8 8 8 8 7 7 7 7 6 7 7 7 8 8 8 9 10 9 9 8 8 8 8 7 5 4 5 5 6 8 8 10
8 8 7 6 5 5 4 4 4 5 5 5 6 7 7 8 9 10 10 10 11 11 10 10 9 8 8 7 7 7 8 8 8 8 7 7 7 7 6 6 6 6 6 6 6 6 6 7 7 7 8 8 8 8 8 8 8 7 7 6 6 6 6 7 7 8 8 8 9 9 10 9 9 9 9 9 8 7 6 6 7 8 9 10 11
8 8 6 5 4 4 3 3 4 4 5 5 6 7 7 7 8 10 11 11 12 11 9 9 8 7 6 6 6 7 8 8 9 8 8 8 8 7 7 6 6 6 6 6 6 6 6 7 7 7 7 8 8 8 8 8 8 7 6 6 6 6 6 7 7 7 8 9 9 9 9 9 9 9 9 9 9 8 9 9 9 10 11 12 13
8 7 6 5 3 3 2 2 3 4 4 5 6 6 7 7 8 9 11 12 13 12 9 7 7 7 6 6 6 7 7 8 8 9 9 9 9 8 8 7 7 7 7 7 6 6 6 7 7 7 7 7 8 8 8 7 7 6 6 5 5 6 6 7 8 8 9 9 10 10 10 10 9 9 9 9 10 10 11 11 11 11 12 13 14
7 6 5 4 2 2 1 1 2 3 3 4 5 6 7 8 9 8 9 11 12 11 9 7 7 6 6 6 6 6 7 7 7 8 9 9 9 9 9 9 8 8 8 8 7 7 6 6 6 7 7 7 7 7 7 7 6 6 5 5 6 7 7 8 9 10 10 11 11 11 12 11 11 11 11 11 11 11 12 13 14 14 14 14 15
7 6 5 3 2 1 0 1 2 3 3 4 4 5 7 7 9 8 8 10 9 9 8 6 6 6 5 6 6 7 8 8 8 9 9 10 10 10 10 10 10 10 10 9 9 8 7 6 6 6 7 7 8 8 8 7 7 7 6 6 7 8 9 10 11 11 12 13 13 13 14 14 14 13 13 13 13 13 13 14 15 16 16 17 16
6 6 5 4 2 1 1 1 2 3 3 4 5 6 7 7 8 9 9 9 7 7 8 5 5 6 5 6 6 8 9 9 9 10 10 11 11 11 11 11 11 11 10 10 9 9 8 7 7 7 8 8 8 9 9 9 8 8 8 8 9 10 11 12 13 14 15 15 16 16 16 16 16 16 16 16 15 15 15 15 15 16 17 18 19
6 5 4 3 3 2 2 2 2 3 3 4 5 5 7 7 7 8 10 10 7 8 8 4 3 4 4 5 6 7 8 8 9 10 11 11 12 12 12 12 12 11 10 10 10 9 9 8 8 8 9 9 9 9 10 10 10 10 9 10 11 12 13 14 15 16 17 18 18 18 19 19 18 18 17 17 17 16 16 16 16 16 16 17 19
5 4 4 4 4 3 3 2 1 2 3 3 4 4 5 6 6 7 8 8 7 8 9 5 2 2 3 5 6 6 5 6 7 9 10 11 12 13 13 13 12 10 10 11 10 10 10 10 10 10 10 10 10 10 10 11 11 11 12 12 13 14 15 16 17 18 18 19 20 20 20 20 20 19 18 18 17 16 16 15 15 15 15 16 17
5 4 3 4 4 4 3 2 1 1 3 3 3 3 3 4 6 8 8 6 5 7 9 6 4 2 3 3 3 4 4 5 7 8 8 10 12 13 13 12 11 10 11 11 11 11 11 11 12 12 12 11 11 11 12 12 12 13 13 13 14 15 16 17 18 18 19 19 20 20 19 19 19 19 18 18 17 16 16 15 14 13 13 14 15
5 4 4 3 4 4 4 3 2 2 3 4 3 2 3 4 6 8 9 7 6 7 8 7 4 2 2 1 0 2 2 4 8 7 6 8 8 8 9 10 10 10 11 12 12 13 13 13 14 14 14 13 12 12 12 12 13 13 13 13 14 15 16 17 18 19 19 19 19 19 18 18 18 18 17 17 17 16 16 15 14 13 13 13 14
6 5 4 4 4 4 4 4 4 4 4 4 3 3 3 3 5 7 9 9 7 6 8 9 8 4 2 1 1 2 1 3 6 4 6 9 7 4 4 6 8 9 10 11 12 13 14 15 16 17 17 15 13 12 12 12 13 14 14 14 14 15 16 17 19 19 18 18 18 19 19 19 18 18 17 16 16 16 16 16 14 13 13 12 13
8 7 6 6 6 5 5 5 4 4 4 4 4 3 3 3 4 6 8 9 8 7 7 8 10 8 6 3 0 1 3 3 3 2 4 8 8 8 7 4 5 6 8 9 10 11 12 14 16 16 16 13 10 10 11 12 13 15 16 16 16 16 17 17 18 17 17 18 18 19 19 18 18 17 16 15 15 16 16 16 16 14 13 12 13
10 9 8 7 7 6 6 6 4 4 3 3 3 4 3 3 3 4 6 8 9 9 9 8 9 9 8 5 3 1 1 2 1 1 3 4 7 11 12 9 8 7 7 8 8 8 9 11 13 14 12 9 7 7 9 11 13 16 16 16 16 15 15 15 15 16 17 17 17 18 18 17 17 16 15 14 14 14 15 15 16 15 13 12 12
11 11 10 9 8 7 7 6 5 3 3 3 3 4 3 3 3 3 4 6 7 9 10 10 10 10 9 8 6 5 4 3 3 1 0 1 4 8 10 11 11 11 9 8 8 8 9 10 11 11 10 7 5 5 8 11 14 15 14 13 12 12 12 13 14 15 15 15 16 17 17 18 18 17 17 16 14 13 14 14 15 15 13 11 11
11 11 11 10 8 7 7 6 5 4 4 3 3 4 3 3 3 3 3 4 6 7 9 10 11 10 10 9 7 5 5 5 6 4 2 1 1 2 5 7 8 10 9 6 7 9 10 11 11 10 9 6 4 4 7 10 11 11 10 10 10 10 11 12 13 13 13 14 15 17 17 17 17 18 19 18 16 14 14 14 14 14 13 11 11
12 12 12 10 8 7 7 7 6 5 5 4 4 4 4 4 4 4 3 4 4 5 6 8 9 9 9 9 9 7 5 4 5 5 3 2 1 2 4 4 4 7 9 7 7 8 9 10 11 10 8 5 4 5 7 8 8 9 9 10 9 9 10 12 12 12 13 14 15 16 16 16 16 17 18 18 16 14 13 13 14 14 13 11 11
12 13 12 11 9 7 7 8 7 6 5 4 3 4 4 4 5 5 4 4 3 3 4 5 6 7 7 8 8 8 6 4 4 4 3 2 1 2 4 4 3 6 9 9 7 8 9 10 11 11 10 8 7 6 7 7 8 9 10 10 10 9 10 11 11 11 12 14 15 16 15 15 16 16 16 16 15 14 13 13 14 13 12 11 10
14 14 13 11 9 8 8 9 9 8 6 5 5 4 4 4 5 5 4 4 4 3 3 3 3 4 6 7 7 7 7 5 4 4 4 3 2 2 3 4 3 5 8 9 8 8 10 11 12 12 11 10 9 8 8 8 9 10 11 11 10 9 10 11 11 11 13 14 14 16 16 16 17 16 16 16 15 14 14 15 15 13 12 11 10
15 15 15 12 10 9 8 9 9 9 8 7 6 5 4 4 4 4 4 4 4 4 3 3 3 3 5 6 5 5 5 5 5 5 5 3 2 3 3 3 3 5 7 9 9 8 10 12 12 13 13 11 10 10 9 10 11 11 12 11 10 9 10 12 12 13 14 13 14 17 18 18 18 18 17 17 16 16 16 17 17 16 14 13 12
16 16 14 13 11 10 8 8 9 10 10 8 7 6 5 5 5 5 5 5 5 5 5 4 3 4 4 5 5 4 4 5 5 6 5 3 3 3 4 3 3 5 6 8 9 7 9 12 12 13 14 13 12 11 11 12 12 13 13 11 11 11 12 13 13 14 14 13 15 19 19 19 19 18 18 19 19 19 19 19 18 17 15 15 14
15 15 14 13 12 11 10 10 9 10 11 9 7 6 6 6 6 6 6 6 6 6 6 5 5 5 5 5 5 3 4 5 5 6 6 5 4 4 3 3 2 4 4 5 7 6 8 11 12 13 15 14 14 13 13 15 15 15 14 13 13 13 13 13 12 12 12 13 17 19 20 19 19 19 19 20 21 21 20 18 17 15 15 14 14
14 15 14 13 12 12 11 11 10 10 11 10 9 8 7 7 7 7 7 7 7 7 6 6 6 6 6 6 5 3 3 5 6 7 7 6 6 6 5 3 1 2 2 3 4 4 7 11 11 12 15 15 14 14 15 17 16 16 15 14 13 12 12 12 12 12 14 16 19 20 20 20 20 20 20 20 20 19 18 16 14 13 12 12 12
15 15 15 14 13 12 12 11 10 11 11 11 10 9 9 8 8 8 7 7 7 7 7 7 7 7 7 6 6 5 4 5 6 7 7 8 8 7 6 4 1 1 1 1 2 3 6 11 10 11 14 15 14 16 17 17 16 15 14 13 13 14 15 16 16 16 18 19 20 21 21 21 21 19 18 18 18 16 15 15 14 12 12 12 11
16 16 15 15 15 14 13 12 11 12 12 11 11 10 10 10 10 9 8 8 9 8 8 8 8 8 8 7 6 5 5 5 6 7 8 9 8 6 5 4 4 3 2 1 2 3 7 11 11 11 14 15 15 17 18 15 15 14 13 13 15 16 17 18 19 19 20 20 21 21 21 21 19 18 17 17 16 15 15 15 14 13 13 12 12
16 16 16 16 16 16 15 13 12 13 13 12 12 11 11 11 11 11 11 10 10 10 9 8 8 7 7 7 6 5 6 6 6 7 9 8 7 6 5 5 6 5 5 3 1 4 8 11 11 12 13 14 15 17 17 15 13 13 12 12 15 16 17 18 19 20 20 21 20 21 21 20 17 16 16 15 15 16 16 15 15 15 14 13 12
17 17 17 17 16 16 16 15 14 14 14 14 14 14 13 13 13 13 12 11 11 11 9 8 7 7 7 7 7 7 7 7 7 8 8 7 6 6 6 6 6 6 6 4 4 6 10 11 11 11 11 13 14 16 17 15 13 12 11 13 15 17 18 18 18 19 20 20 20 21 21 19 16 15 14 13 15 17 16 16 16 16 15 15 14
17 18 18 17 17 17 16 16 15 15 15 15 15 15 15 14 14 13 13 12 12 11 10 9 7 7 8 9 9 9 8 9 10 9 8 7 7 7 7 7 6 6 6 5 6 8 10 10 10 11 11 13 14 15 16 16 15 13 12 13 15 17 18 18 18 19 19 19 19 20 20 17 15 14 13 13 15 17 17 17 17 16 16 16 16
18 18 18 17 17 17 17 17 17 16 15 15 15 15 16 15 14 13 13 13 13 11 10 10 9 8 8 9 10 10 9 10 10 9 8 8 8 8 7 7 7 7 7 7 6 7 10 11 11 11 12 13 14 15 15 15 15 15 14 14 16 17 17 17 18 19 19 18 18 20 19 16 14 13 13 15 16 16 17 17 16 16 16 16 15
18 18 18 17 17 17 17 17 17 17 16 15 15 15 15 15 14 14 13 12 12 11 11 11 11 9 9 10 10 9 8 9 9 8 9 8 8 8 8 8 9 9 8 8 8 8 10 12 12 12 13 13 14 14 15 15 15 15 15 15 15 16 16 17 19 19 18 17 18 19 18 15 13 13 14 15 16 16 16 16 16 16 16 16 15
16 17 17 17 16 16 17 18 18 17 16 16 16 16 15 15 15 15 14 13 12 12 11 11 11 11 10 10 10 9 9 9 9 9 9 9 9 10 11 11 11 11 10 10 10 10 11 12 12 13 13 13 14 14 15 16 15 15 15 15 16 16 17 18 19 18 17 17 18 19 17 14 13 14 15 15 15 15 15 15 16 16 17 16 16
16 16 16 17 17 17 18 17 18 18 17 17 17 17 16 16 16 15 14 14 13 13 12 12 12 12 11 11 11 10 10 11 11 10 10 10 11 12 13 13 13 13 13 13 12 12 12 14 14 13 13 13 14 14 14 15 16 15 15 15 16 17 18 19 19 17 17 17 19 18 16 13 13 14 15 14 14 14 14 15 16 16 16 16 15
16 16 16 17 17 18 18 17 18 18 18 18 18 17 17 17 17 16 15 14 14 14 13 13 13 13 13 13 13 12 12 12 11 11 11 12 13 13 13 13 13 13 13 14 14 13 13 13 13 13 13 14 14 14 14 14 15 16 16 17 17 17 19 20 21 18 15 16 18 17 15 13 14 14 14 14 14 14 15 16 16 15 15 15 15
17 18 18 18 18 18 17 17 18 18 18 18 18 17 17 16 17 17 16 16 15 15 15 14 13 13 14 15 15 13 12 12 12 13 13 13 13 12 11 11 12 13 14 15 14 13 13 12 12 12 13 13 13 14 13 13 14 14 16 18 19 20 20 21 22 19 15 15 18 16 13 12 14 14 13 13 14 15 16 16 16 15 15 14 14
18 18 18 18 18 18 18 18 18 18 18 19 18 18 17 17 17 17 17 17 17 16 15 15 14 14 14 15 15 14 13 13 14 14 13 12 11 12 12 12 11 12 13 15 15 13 12 12 12 13 13 13 13 13 13 13 14 14 15 15 16 19 21 20 20 18 15 16 18 15 13 12 14 15 13 13 14 16 17 15 15 16 16 15 15
19 18 18 19 19 20 19 19 19 19 19 19 18 18 18 18 18 18 18 18 17 17 17 16 15 14 14 14 14 14 14 14 14 13 12 11 12 13 13 12 11 10 11 12 13 12 12 12 13 13 13 13 12 12 13 12 12 14 15 15 14 16 19 18 18 16 14 16 18 14 13 14 16 16 15 15 17 18 17 16 15 16 16 15 14
20 20 19 19 20 21 21 20 20 20 20 20 19 18 18 18 19 19 18 18 17 17 17 17 17 16 15 14 14 14 15 15 14 13 12 11 11 12 12 10 9 9 9 9 10 11 12 13 14 13 12 13 12 11 11 11 11 13 15 14 14 14 15 15 15 15 15 16 15 12 13 14 15 16 16 16 19 20 18 16 16 15 15 14 13
22 22 21 21 21 21 21 21 21 21 21 21 20 19 19 19 20 20 19 18 18 17 18 18 18 18 16 16 15 15 15 14 13 12 12 12 11 11 11 10 10 9 9 8 9 10 11 13 14 13 12 13 12 10 9 10 12 13 13 11 13 14 13 13 13 14 15 15 14 11 12 14 15 16 16 16 18 21 19 16 15 13 13 13 12
23 22 21 21 21 21 21 21 22 22 22 21 21 21 21 20 21 21 21 20 19 19 19 19 19 19 18 17 17 16 15 14 13 13 12 12 11 11 11 10 10 9 9 9 9 10 11 12 13 13 12 12 11 9 8 10 12 12 11 10 11 11 11 11 11 12 14 14 13 10 10 14 15 14 16 15 16 20 19 17 15 13 12 12 11
23 23 22 21 21 21 21 22 22 22 22 21 22 22 22 22 21 21 22 22 21 21 21 21 21 21 20 19 18 17 16 16 15 14 13 12 11 11 11 10 10 10 10 10 10 10 11 12 12 11 10 10 9 8 9 10 11 11 11 10 10 9 9 10 11 12 12 12 13 12 10 14 16 14 14 14 15 19 20 17 16 13 12 12 12
24 24 23 22 22 22 22 23 23 23 22 22 23 23 22 22 22 22 22 22 22 22 22 22 22 22 21 21 20 19 19 18 17 15 14 13 12 11 10 10 11 11 11 11 10 10 10 9 8 7 6 7 9 10 11 11 10 10 9 8 8 7 8 9 9 8 8 10 14 13 10 14 17 14 12 12 14 17 18 17 15 13 12 12 13
24 24 24 23 23 22 22 22 22 23 23 23 23 23 22 22 22 22 23 23 23 22 22 22 22 22 22 21 21 21 20 20 19 17 16 14 13 12 11 11 11 11 10 9 9 8 7 7 5 5 6 8 10 10 9 9 8 6 5 5 6 7 9 10 8 6 5 8 13 13 10 14 18 15 12 10 12 15 17 16 15 13 12 13 14
22 22 22 22 22 22 22 21 20 21 22 23 23 23 22 22 22 23 23 23 23 23 23 23 22 22 22 21 21 21 20 20 19 18 16 15 13 13 12 11 10 10 9 8 8 7 6 6 5 5 6 6 6 6 5 5 5 4 4 4 6 9 9 8 7 7 6 8 13 14 12 14 17 17 13 8 10 15 16 15 14 13 13 14 14
21 20 19 19 20 21 21 20 19 19 20 21 21 21 21 20 20 21 21 21 22 22 23 23 22 21 20 19 19 18 19 19 18 17 17 15 14 13 12 11 10 10 9 8 6 6 5 4 4 2 1 0 0 1 2 3 4 5 5 6 8 10 10 7 6 7 6 7 13 14 11 11 13 16 14 7 7 13 17 14 12 11 12 13 14
19 18 17 17 16 16 16 16 16 16 16 17 17 17 18 18 18 18 17 17 17 19 20 20 19 17 15 15 16 17 17 18 17 16 16 15 14 13 12 11 11 10 9 7 5 4 2 2 3 5 6 6 5 5 5 6 6 7 8 9 9 9 9 7 7 7 5 7 13 14 9 8 10 13 12 7 3 8 15 14 11 9 10 12 13
16 15 14 14 14 12 11 11 11 11 11 12 13 13 13 14 14 14 13 12 13 14 15 16 16 15 14 15 17 18 17 17 16 15 15 14 13 13 12 11 11 10 9 8 6 7 7 8 10 10 10 9 8 7 7 7 7 8 9 8 8 8 8 6 6 6 4 6 12 13 8 7 10 11 10 6 2 3 9 12 11 9 9 11 13
Wind_Direction
136 130 130 129 128 126 119 112 102 92 81 68 60 50 34 21 10 358 355 353 350 346 332 316 308 304 301 305 308 313 321 323 321 320 323 331 337 334 329 329 333 337 341 343 336 326 324 329 326 315 310 305 298 300 303 304 305 307 310 310 311 313 313 313 311 308 309 310 309 309 309 307 307 308 309 309 310 316 317 317 319 318 315 310 303
137 133 133 132 129 124 116 107 93 81 69 54 41 27 18 13 6 358 357 352 349 346 333 316 304 300 301 308 316 323 331 334 335 338 339 345 350 352 346 341 347 351 351 354 354 350 339 324 312 306 305 303 300 302 305 309 311 311 313 314 313 315 314 313 312 312 316 317 312 309 308 307 305 304 304 305 307 311 311 313 318 318 315 312 308
139 135 134 133 128 123 114 104 88 72 56 40 28 19 15 11 3 356 351 348 346 343 334 319 304 296 296 304 313 322 335 340 345 354 357 360 3 7 6 1 2 5 4 358 355 351 346 340 330 322 319 315 313 313 315 319 320 320 320 320 318 316 316 317 317 319 321 320 317 313 313 312 309 305 306 310 312 313 318 326 332 327 323 321 319
140 137 136 133 128 123 114 101 83 63 44 31 26 19 13 9 2 352 346 345 342 337 331 321 310 302 294 296 304 313 326 331 335 346 354 1 6 11 14 12 11 13 17 13 8 2 355 353 349 344 339 335 332 330 329 330 330 329 328 327 327 329 331 334 335 336 336 335 335 335 334 335 335 335 336 340 336 330 338 350 356 350 338 328 327
143 141 139 134 129 122 108 91 71 53 38 28 25 17 9 5 358 347 341 340 336 333 330 321 312 305 295 292 298 305 314 319 322 326 333 344 353 2 5 5 5 5 10 12 10 6 3 0 357 353 349 346 343 340 338 337 336 335 335 336 340 346 349 354 356 357 359 359 359 358 358 359 360 359 357 356 351 344 348 352 349 344 337 333 336
149 147 141 134 126 115 98 79 56 42 33 25 17 8 1 354 346 340 337 334 332 335 334 325 314 306 297 294 299 306 310 314 317 315 318 325 331 340 345 348 350 352 355 358 358 357 356 353 352 352 350 350 349 347 345 343 344 345 347 348 352 359 5 9 10 11 12 12 11 9 8 10 8 6 1 358 352 339 330 333 332 331 332 331 332
154 150 142 131 121 109 88 64 45 34 25 17 6 359 352 343 338 335 333 331 335 341 338 329 322 311 300 298 303 307 311 316 316 315 315 315 317 322 326 333 340 343 342 344 347 347 345 343 343 345 347 351 352 352 353 353 355 356 358 0 3 7 11 14 15 13 12 13 13 10 8 8 8 6 359 352 348 336 323 321 320 321 323 322 324
152 149 141 132 120 104 79 56 41 33 25 11 359 354 350 342 337 334 332 333 339 343 339 328 323 315 305 299 299 304 311 316 314 313 312 308 310 314 316 322 328 331 332 333 337 337 337 337 337 339 340 344 349 353 357 359 1 3 5 7 8 9 10 11 10 8 4 3 3 2 360 358 359 358 350 343 340 334 325 320 314 311 312 313 316
150 151 147 141 128 107 83 56 36 31 27 9 355 353 353 342 335 336 335 334 337 341 337 320 311 309 304 295 299 309 315 317 316 316 312 305 304 306 309 312 315 321 325 327 329 331 333 334 334 336 337 338 341 347 352 358 360 2 4 5 4 3 3 2 360 357 355 353 351 350 349 346 344 342 339 334 330 327 322 318 313 310 310 310 313
154 158 159 162 156 131 100 45 20 15 15 1 352 354 351 339 332 334 337 335 335 337 335 317 302 299 298 295 306 328 331 325 325 324 320 315 309 305 304 306 310 316 322 325 326 328 331 333 333 333 333 332 332 335 339 345 348 349 349 351 351 350 351 352 351 348 346 344 341 339 338 336 333 331 328 325 323 321 319 316 314 314 312 311 313
164 172 176 182 179 161 172 355 351 350 357 349 346 347 343 338 334 332 337 341 340 337 334 317 296 287 296 305 310 330 338 333 330 329 328 327 324 317 310 308 313 316 320 324 324 322 324 327 328 328 328 327 325 325 325 328 331 333 335 337 339 341 342 342 342 341 340 338 335 332 330 329 327 325 323 321 321 318 315 313 313 315 314 312 313
171 180 186 191 192 201 247 316 338 334 341 343 343 341 338 340 342 340 340 346 354 351 342 324 289 277 290 309 313 321 330 332 330 328 326 326 325 323 319 318 318 320 322 322 318 315 316 319 321 322 324 326 325 322 321 320 320 321 324 329 332 333 335 335 336 336 336 334 332 330 328 326 324 322 320 320 320 318 315 312 310 311 311 311 311
175 186 195 207 215 219 244 297 331 326 329 338 338 338 342 346 350 348 343 348 8 13 3 352 299 295 308 318 320 319 316 318 321 322 321 318 314 313 315 317 319 322 324 318 312 307 307 310 313 318 322 325 328 326 323 321 320 319 319 324 329 330 331 332 333 333 333 333 332 331 329 326 325 323 322 321 321 321 319 314 311 309 307 307 306
182 193 210 222 227 227 243 284 318 318 317 327 333 337 348 355 357 355 351 355 12 20 16 20 15 10 358 337 340 343 326 317 321 320 314 307 303 303 305 309 312 318 319 313 309 304 301 303 304 309 314 319 323 325 326 326 327 326 324 328 331 332 333 333 333 333 334 333 333 332 330 329 328 326 325 325 325 325 324 320 315 310 307 304 302
189 200 220 227 232 236 244 266 280 298 298 305 319 338 1 11 10 7 6 10 22 24 19 21 28 31 18 356 354 359 352 347 340 329 319 308 299 298 298 299 303 308 310 309 309 308 305 302 301 303 305 311 318 322 326 330 333 333 332 334 336 337 337 336 336 336 337 337 336 335 335 334 332 330 329 329 328 328 328 325 320 317 312 307 303
204 214 228 236 234 238 249 260 267 277 284 292 302 334 6 14 17 17 19 23 34 40 36 35 34 30 35 47 25 8 355 337 336 337 353 340 314 298 294 294 298 301 303 306 310 311 308 306 305 306 304 305 312 320 326 333 338 339 339 340 342 343 342 340 340 341 341 340 340 340 340 339 336 333 332 331 332 331 332 331 327 324 320 316 311
218 227 230 231 225 235 256 260 268 276 277 287 298 321 352 3 16 23 26 28 36 53 57 55 55 59 68 94 358 11 255 305 325 329 14 14 5 352 320 295 294 298 302 307 311 311 309 310 310 308 305 303 303 311 323 332 339 341 341 342 343 343 342 341 342 343 344 342 342 343 343 342 339 336 334 332 333 333 333 335 334 333 329 325 321
223 227 227 227 226 242 260 257 268 282 278 286 296 313 340 356 9 20 27 29 37 55 64 63 62 60 60 63 358 270 266 310 332 304 359 23 32 34 26 351 320 316 320 322 321 317 314 313 313 313 312 308 301 304 317 328 336 339 338 338 339 339 340 342 345 347 347 345 344 344 343 342 338 335 332 330 330 331 332 333 335 337 337 334 331
224 225 226 228 235 249 254 250 264 281 276 281 294 310 325 336 351 10 23 26 36 49 57 62 62 56 56 58 60 116 269 331 340 304 338 13 31 41 48 45 38 26 10 1 350 337 327 319 317 319 321 326 320 308 315 326 333 333 332 333 335 339 344 350 352 351 349 349 351 354 355 354 349 344 338 333 331 329 330 331 332 335 339 340 338
221 223 225 229 239 248 246 247 260 269 262 265 284 300 307 315 328 348 9 18 28 41 49 56 57 52 57 65 70 88 80 34 11 5 63 332 3 35 52 54 55 49 40 33 23 9 356 346 337 332 331 339 337 315 320 328 329 329 329 333 341 350 357 359 357 355 357 3 9 13 11 9 8 8 5 359 352 342 338 338 337 338 340 340 340
219 221 223 226 235 242 241 247 256 252 246 252 271 292 299 300 311 321 340 360 15 33 44 50 54 52 54 62 68 81 77 48 31 27 61 74 346 346 16 34 45 43 41 36 23 13 4 358 353 350 344 344 345 330 332 333 333 340 348 352 358 4 5 2 2 6 14 18 21 20 14 12 14 15 12 9 6 0 354 351 349 346 344 342 340
219 218 217 218 225 234 239 245 249 242 241 249 264 285 290 286 298 305 309 331 355 22 37 45 51 52 51 52 54 58 56 38 28 23 18 32 38 303 342 5 8 19 29 30 20 13 7 0 359 5 11 16 23 4 352 354 1 10 11 5 3 4 1 3 10 17 20 19 20 19 14 12 12 8 4 1 360 359 355 351 348 346 345 343 342
217 215 212 215 224 232 237 241 244 241 244 252 263 284 288 279 285 295 306 319 335 360 19 35 45 48 47 44 43 44 42 29 23 22 4 354 12 333 345 360 337 346 10 19 25 28 26 26 26 32 41 47 45 28 14 17 17 12 6 359 357 358 359 6 14 16 15 16 17 15 12 10 8 4 360 357 354 354 353 348 343 342 343 342 341
214 212 212 216 225 231 234 239 244 245 248 257 263 276 286 279 279 288 308 322 322 330 340 360 25 36 38 33 30 36 41 39 32 22 7 351 349 333 338 355 339 334 353 6 18 34 36 35 35 36 39 39 36 27 17 13 4 355 353 353 356 0 3 6 9 12 12 13 13 10 7 7 6 4 2 359 355 356 0 357 351 347 348 347 342
212 212 213 216 224 230 235 243 248 248 249 256 259 258 266 274 277 285 306 319 311 309 316 328 352 10 22 22 17 22 31 32 24 15 11 1 346 336 336 337 321 326 347 360 7 19 27 28 30 31 31 31 27 23 18 11 4 360 356 354 357 359 359 358 1 8 10 9 8 5 4 4 4 3 0 357 351 350 352 352 351 349 349 351 349
216 217 217 218 226 234 240 251 253 248 245 247 251 250 256 266 273 284 298 306 302 302 309 315 329 345 357 6 9 17 22 25 23 17 17 17 1 347 345 339 321 330 348 357 1 7 12 18 27 31 29 29 27 27 26 20 15 11 5 0 358 352 350 353 359 4 6 5 3 2 2 360 356 354 351 347 342 338 337 337 338 339 338 340 344
225 226 223 224 233 237 242 253 255 246 240 241 246 248 254 262 269 280 286 289 295 299 302 303 311 322 329 341 354 9 18 20 22 20 20 20 9 360 358 360 339 338 342 345 354 0 2 8 19 25 23 23 24 27 26 20 15 11 6 1 356 351 352 359 6 7 5 4 2 0 359 354 348 344 340 338 336 335 335 333 329 327 327 330 336
235 233 230 232 237 239 244 253 253 245 238 238 243 246 252 260 268 278 280 279 285 290 294 298 306 313 314 320 328 336 355 4 3 3 6 7 4 1 354 356 346 335 332 327 341 350 356 359 4 13 17 17 18 20 16 12 11 10 7 5 6 11 17 21 21 14 8 6 3 0 357 352 347 344 341 341 342 342 343 340 331 327 327 331 337
240 236 235 238 241 244 248 252 250 241 234 235 242 245 249 256 263 271 274 271 274 278 284 289 297 308 311 307 310 316 327 339 341 341 342 344 348 352 347 342 314 299 310 321 318 316 345 353 351 357 8 12 12 10 7 8 11 13 16 25 32 35 32 25 18 12 8 7 5 1 358 354 353 353 351 352 355 358 356 352 349 348 346 345 345
240 237 237 240 244 247 249 250 246 239 233 235 242 245 247 252 259 266 268 265 266 269 275 283 290 298 304 299 293 298 305 311 323 327 326 326 327 331 336 334 320 295 265 277 307 302 329 347 349 348 358 5 6 4 4 7 12 15 24 33 33 26 18 14 11 7 6 6 5 3 359 358 359 360 360 4 11 16 14 11 9 7 360 351 347
238 238 240 242 246 246 246 247 244 236 233 237 242 245 248 253 259 265 266 262 261 264 268 275 281 287 294 292 280 279 290 295 307 318 318 315 309 307 314 324 328 313 286 264 248 309 319 333 342 345 351 357 360 360 1 5 9 13 19 19 14 8 4 4 5 3 3 5 5 2 0 2 4 4 7 17 25 24 24 24 22 19 13 4 355
239 240 243 246 248 246 244 246 243 237 239 244 248 249 251 256 263 268 266 260 258 263 265 265 269 277 285 286 277 274 280 285 294 307 312 313 306 301 305 315 327 324 306 273 243 290 311 320 327 336 344 349 353 355 355 356 359 3 6 2 357 356 355 358 2 1 0 2 3 2 2 4 8 11 15 22 23 22 23 25 23 22 20 16 12
241 242 245 247 248 246 246 246 244 242 247 251 252 252 254 257 264 269 265 259 259 265 268 265 266 276 285 287 282 277 279 282 288 296 304 312 312 304 299 302 311 316 308 284 258 282 305 314 318 326 336 341 345 348 349 349 349 350 351 348 346 349 350 353 358 359 359 0 2 3 3 6 11 17 22 19 16 16 17 17 16 15 14 13 14
244 244 246 248 247 245 245 246 245 247 252 253 251 251 254 257 262 266 263 258 260 267 269 266 267 275 284 286 284 281 281 283 286 290 297 307 313 309 301 299 305 307 299 282 266 270 291 305 314 320 328 335 339 343 345 346 346 343 341 341 342 345 348 351 356 358 358 0 4 4 4 8 15 21 20 15 12 11 11 10 9 7 6 5 6
245 245 246 246 245 244 245 245 245 248 252 251 248 249 252 254 259 262 259 256 258 263 266 266 266 272 278 280 279 278 281 284 286 288 291 299 306 306 303 303 303 305 304 291 277 271 282 298 309 316 323 330 334 338 340 342 343 341 340 342 342 344 346 351 356 358 357 360 4 5 4 8 16 18 15 12 11 10 7 6 3 1 1 358 358
245 244 243 243 242 244 246 247 246 249 251 250 249 250 252 254 257 260 258 255 256 259 262 266 266 267 272 275 275 275 280 286 288 288 289 293 299 301 300 300 299 299 303 301 293 285 280 284 297 310 319 325 328 335 338 337 337 339 340 341 340 342 346 351 356 357 356 360 3 3 3 8 14 15 13 12 14 14 10 6 2 0 1 359 357
246 244 242 241 242 245 248 250 250 250 250 251 252 253 254 255 256 258 258 257 257 259 262 268 269 265 264 268 272 275 278 283 286 288 293 295 299 302 299 296 296 295 296 297 298 295 282 278 289 304 313 318 324 333 338 336 336 338 340 339 339 344 346 350 356 360 357 357 0 1 2 7 14 16 16 20 25 25 19 12 8 7 6 5 4
249 247 245 244 245 247 250 252 252 250 250 252 254 255 256 256 255 255 258 258 259 261 264 268 270 267 264 266 271 274 277 283 287 291 296 298 300 302 298 292 290 289 289 289 292 295 287 281 286 297 307 315 322 330 337 338 338 340 340 338 340 346 348 348 354 360 360 356 357 1 1 6 16 19 24 33 39 35 28 22 18 16 15 12 11
251 249 248 246 246 248 251 252 251 251 252 253 255 256 257 255 253 254 257 260 262 263 266 269 271 271 270 270 271 274 278 284 290 293 295 296 297 300 298 293 288 284 283 282 285 288 285 281 282 291 302 309 317 325 330 334 337 340 343 340 339 344 347 348 351 355 358 353 354 2 4 9 21 25 32 46 47 37 32 29 26 22 19 16 14
251 249 248 248 248 249 251 252 252 252 255 256 255 255 254 253 253 255 259 262 263 263 264 267 272 274 274 271 271 273 278 284 290 292 290 287 292 297 300 300 295 287 281 279 281 282 277 274 277 286 294 300 310 319 322 330 336 340 344 341 335 337 341 344 349 352 352 348 352 4 11 15 27 32 41 53 47 37 33 32 30 25 19 15 13
249 249 251 252 251 252 253 254 253 252 254 255 254 253 253 252 253 257 261 262 261 261 261 263 268 273 274 273 274 276 279 282 285 286 281 280 286 291 293 296 296 293 286 282 280 276 268 267 274 282 288 292 303 314 320 331 338 335 337 336 330 333 335 338 346 353 352 346 350 7 17 19 28 36 45 51 44 37 35 31 29 25 17 12 10
249 251 254 255 254 256 258 258 257 253 252 253 253 254 255 255 256 258 260 261 259 260 262 263 265 269 272 276 279 279 278 278 280 279 275 278 283 284 286 289 293 296 295 290 285 277 268 269 275 280 281 284 297 311 316 325 330 329 332 332 329 331 334 337 344 353 356 350 349 5 20 20 26 37 47 52 44 39 36 32 28 22 17 15 12
251 253 255 256 256 258 261 262 261 258 256 255 255 256 258 260 260 259 258 259 260 261 263 264 265 269 271 275 280 281 276 271 269 269 268 271 273 275 280 286 291 296 298 297 294 286 278 275 277 278 276 283 295 304 310 319 325 326 326 328 328 331 337 339 337 343 354 353 346 355 15 18 21 34 46 51 46 39 36 33 30 23 21 25 27
251 254 255 256 257 259 262 263 262 260 261 262 261 262 263 263 262 259 257 258 260 262 263 263 265 268 271 274 277 278 272 263 260 260 260 262 263 266 275 282 287 290 294 297 295 290 285 279 277 277 277 284 294 303 314 320 321 321 321 324 326 329 337 337 328 335 349 351 342 340 2 13 16 29 41 47 46 40 35 33 31 30 34 40 46
251 253 254 256 258 260 261 261 261 261 263 266 267 266 266 264 262 258 256 257 260 262 264 264 265 267 269 270 271 270 266 260 257 255 254 256 260 265 273 277 281 285 287 290 290 287 285 278 275 278 278 283 294 305 313 313 312 315 316 320 327 330 332 327 324 337 350 353 350 342 345 4 10 19 35 44 46 41 36 32 32 37 46 55 60
253 255 257 259 260 262 262 259 259 260 261 264 266 266 264 263 261 258 255 257 260 262 264 265 267 268 268 268 267 267 263 257 255 253 252 256 259 264 271 275 280 283 283 283 282 279 277 271 268 271 270 279 293 301 305 306 306 310 312 320 331 329 322 321 325 343 354 354 357 351 341 355 2 7 26 44 48 41 37 35 34 40 53 62 67
255 257 259 260 259 260 259 258 257 256 255 257 259 260 260 260 259 257 256 258 260 263 264 265 268 270 270 268 267 266 260 252 249 250 251 255 259 263 270 274 276 276 274 273 269 265 265 262 261 268 276 287 295 299 305 305 300 306 315 327 331 324 325 332 340 357 360 347 355 358 348 351 359 1 12 41 51 41 38 39 40 46 58 64 67
252 253 253 253 255 255 254 254 253 251 250 251 251 252 254 255 256 256 257 259 261 262 263 265 268 270 271 269 266 262 253 245 244 247 249 253 259 263 266 267 265 262 258 257 258 259 263 269 278 286 289 293 298 301 308 310 312 330 338 337 344 345 348 351 351 3 7 348 355 4 357 352 1 3 7 34 54 39 36 44 48 54 61 61 61
243 243 245 245 248 252 252 251 249 246 247 248 248 248 249 251 253 255 258 261 263 264 265 266 267 268 268 265 258 251 245 242 243 247 249 252 257 260 260 256 252 245 241 245 255 262 271 282 287 287 276 280 22 19 15 11 12 8 1 8 13 10 10 9 351 350 356 349 357 4 0 355 2 5 7 26 49 33 33 42 51 56 59 57 56
240 233 234 236 239 244 248 248 247 244 244 246 246 248 249 251 254 257 259 263 266 267 266 263 261 259 255 249 243 239 239 241 244 246 249 252 253 253 250 244 238 233 229 228 226 220 211 166 134 126 119 111 102 89 73 53 35 23 24 33 30 18 20 19 351 337 334 349 2 4 358 357 1 4 9 13 16 26 29 34 40 48 52 49 49
250 232 224 227 229 230 234 239 240 236 235 237 240 243 244 247 251 255 257 260 265 268 263 255 250 242 233 231 235 235 236 238 241 243 245 247 249 247 244 237 230 225 222 219 204 181 161 143 132 124 114 105 94 80 67 49 31 25 28 30 21 14 17 14 356 346 331 346 3 3 352 351 359 4 13 15 334 1 20 25 30 36 44 44 42